Orbital Elements at Epoch 2459200.5 (2020-Dec-17.0) TDB
Reference: JPL 14 (heliocentric ecliptic J2000)
Element | Value | Uncertainty (1-sigma) | Units |
e | .1448979043421218 | 5.483e-08 | |
a | 3.090160516738476 | 4.9734e-08 | au |
q | 2.642402733782302 | 1.8319e-07 | au |
i | 21.41369422920521 | 7.3236e-06 | deg |
node | 302.8269448870773 | 1.457e-05 | deg |
peri | 330.4794612646455 | 2.8925e-05 | deg |
M | 306.7086973975038 | 2.7608e-05 | deg |
tp | 2459494.213440648236 (2021-Oct-06.71344065) | 0.00015441 | TDB |
period | 1984.129369515768 5.43 | 4.7899e-05 1.311e-07 | d yr |
n | .181439781866572 | 4.3802e-09 | deg/d |
Q | 3.537918299694649 | 5.694e-08 | au |
|
| | Orbit Determination Parameters
Additional Information
|